| time (UTC) | temp F | wind direction | speed MPH | gust MPH | rain 1hr in | rain 24hr in | rain mn in | humidity % | barometer mb |
| 20260506194026 | 60 | 97 | 0.0 | 6.0 | 0.00 | 0.05 | 0.05 | 95 | 1005.3 |
| 20260506193523 | 60 | 259 | 2.0 | 5.0 | 0.00 | 0.05 | 0.05 | 95 | 1005.5 |
| 20260506193020 | 60 | 309 | 2.0 | 6.0 | 0.00 | 0.05 | 0.05 | 95 | 1005.5 |
| 20260506192517 | 59 | 215 | 1.0 | 6.0 | 0.00 | 0.05 | 0.05 | 95 | 1005.4 |
| 20260506192013 | 59 | 90 | 3.0 | 6.0 | 0.00 | 0.05 | 0.05 | 95 | 1005.6 |
| 20260506191510 | 60 | 105 | 0.0 | 4.0 | 0.00 | 0.05 | 0.05 | 95 | 1005.7 |
| 20260506191006 | 59 | 181 | 8.0 | 9.0 | 0.00 | 0.05 | 0.05 | 95 | 1005.8 |
| 20260506190503 | 59 | 275 | 4.0 | 6.0 | 0.00 | 0.05 | 0.05 | 95 | 1006.0 |
| 20260506185959 | 60 | 121 | 0.0 | 9.0 | 0.00 | 0.05 | 0.05 | 95 | 1005.6 |
| 20260506185457 | 59 | 228 | 2.0 | 6.0 | 0.00 | 0.05 | 0.05 | 95 | 1005.8 |
| 20260506184954 | 59 | 143 | 6.0 | 9.0 | 0.02 | 0.05 | 0.05 | 95 | 1006.0 |
| 20260506184452 | 60 | 226 | 5.0 | 10.0 | 0.02 | 0.05 | 0.05 | 95 | 1005.9 |
| 20260506183948 | 60 | 180 | 1.0 | 4.0 | 0.00 | 0.05 | 0.05 | 96 | 1005.9 |
| 20260506183443 | 60 | 108 | 6.0 | 7.0 | 0.00 | 0.05 | 0.05 | 96 | 1006.0 |
| 20260506182941 | 59 | 114 | 3.0 | 6.0 | 0.02 | 0.05 | 0.05 | 96 | 1005.9 |
| 20260506182438 | 60 | 57 | 5.0 | 6.0 | 0.02 | 0.04 | 0.04 | 95 | 1006.0 |
| 20260506181935 | 59 | 289 | 1.0 | 8.0 | 0.02 | 0.04 | 0.04 | 95 | 1005.9 |
| 20260506181433 | 59 | 67 | 6.0 | 6.0 | 0.00 | 0.04 | 0.04 | 95 | 1005.9 |
| 20260506180929 | 59 | 270 | 0.0 | 8.0 | 0.00 | 0.04 | 0.04 | 95 | 1006.0 |
| 20260506180426 | 59 | 236 | 3.0 | 7.0 | 0.02 | 0.04 | 0.04 | 95 | 1006.1 |
| 20260506175923 | 60 | 57 | 0.0 | 7.0 | 0.02 | 0.04 | 0.04 | 95 | 1006.1 |
| 20260506175420 | 60 | 227 | 6.0 | 10.0 | 0.00 | 0.04 | 0.04 | 94 | 1005.9 |
| 20260506174916 | 60 | 75 | 10.0 | 11.0 | 0.02 | 0.04 | 0.04 | 94 | 1006.1 |
| 20260506174414 | 60 | 98 | 4.0 | 9.0 | 0.02 | 0.03 | 0.03 | 93 | 1006.0 |
| 20260506173911 | 60 | 139 | 2.0 | 5.0 | 0.07 | 0.03 | 0.03 | 93 | 1006.1 |
| 20260506173408 | 60 | 211 | 3.0 | 5.0 | 0.07 | 0.03 | 0.03 | 93 | 1006.6 |
| 20260506172905 | 61 | 165 | 4.0 | 7.0 | 0.05 | 0.02 | 0.02 | 92 | 1006.3 |
| 20260506172401 | 62 | 86 | 5.0 | 7.0 | 0.05 | 0.02 | 0.02 | 91 | 1006.6 |
| 20260506171859 | 62 | 225 | 3.0 | 5.0 | 0.05 | 0.01 | 0.01 | 89 | 1006.6 |
| 20260506171356 | 62 | 187 | 1.0 | 10.0 | 0.05 | 0.01 | 0.01 | 87 | 1006.7 |
| 20260506170854 | 63 | 164 | 4.0 | 10.0 | 0.02 | 0.00 | 0.00 | 86 | 1007.0 |
| 20260506170349 | 64 | 199 | 3.0 | 6.0 | 0.00 | 0.00 | 0.00 | 85 | 1007.0 |
| 20260506165843 | 64 | 180 | 0.0 | 5.0 | 0.00 | 0.00 | 0.00 | 83 | 1006.7 |
| 20260506165340 | 65 | 175 | 6.0 | 11.0 | 0.00 | 0.00 | 0.00 | 81 | 1007.2 |
| 20260506164831 | 65 | 90 | 3.0 | 10.0 | 0.00 | 0.00 | 0.00 | 80 | 1007.0 |
| 20260506164328 | 66 | 15 | 2.0 | 10.0 | 0.00 | 0.00 | 0.00 | 79 | 1007.0 |
| 20260506163826 | 66 | 275 | 6.0 | 6.0 | 0.00 | 0.00 | 0.00 | 77 | 1006.8 |
| 20260506163320 | 66 | 90 | 0.0 | 9.0 | 0.00 | 0.00 | 0.00 | 77 | 1006.9 |
| 20260506162815 | 66 | 81 | 8.0 | 12.0 | 0.00 | 0.00 | 0.00 | 77 | 1006.9 |
| 20260506162313 | 67 | 146 | 5.0 | 9.0 | 0.00 | 0.00 | 0.00 | 76 | 1006.7 |
| 20260506161805 | 68 | 119 | 4.0 | 12.0 | 0.00 | 0.00 | 0.00 | 74 | 1006.8 |
| 20260506161302 | 68 | 51 | 3.0 | 8.0 | 0.00 | 0.00 | 0.00 | 74 | 1006.8 |
| 20260506160800 | 68 | 328 | 4.0 | 10.0 | 0.00 | 0.00 | 0.00 | 73 | 1006.7 |
| 20260506160256 | 69 | 123 | 2.0 | 10.0 | 0.00 | 0.00 | 0.00 | 73 | 1006.8 |
| 20260506155755 | 69 | 240 | 0.0 | 3.0 | 0.00 | 0.00 | 0.00 | 72 | 1006.8 |
| 20260506155251 | 68 | 124 | 5.0 | 12.0 | 0.00 | 0.00 | 0.00 | 72 | 1007.2 |
| 20260506153358 | 68 | 156 | 0.0 | 10.0 | 0.00 | 0.00 | 0.00 | 74 | 1007.3 |
| 20260506152855 | 68 | 209 | 5.0 | 8.0 | 0.00 | 0.00 | 0.00 | 73 | 1007.3 |
| 20260506152352 | 68 | 139 | 4.0 | 5.0 | 0.00 | 0.00 | 0.00 | 74 | 1007.3 |
| 20260506151851 | 68 | 229 | 5.0 | 8.0 | 0.00 | 0.00 | 0.00 | 73 | 1007.4 |
| 20260506151347 | 68 | 11 | 0.0 | 3.0 | 0.00 | 0.00 | 0.00 | 74 | 1007.2 |
| 20260506150844 | 68 | 7 | 0.0 | 7.0 | 0.00 | 0.00 | 0.00 | 75 | 1007.5 |
| 20260506150341 | 68 | 164 | 0.0 | 7.0 | 0.00 | 0.00 | 0.00 | 75 | 1007.4 |
| 20260506145837 | 67 | 244 | 3.0 | 11.0 | 0.00 | 0.00 | 0.00 | 76 | 1007.2 |
| 20260506145334 | 67 | 75 | 0.0 | 8.0 | 0.00 | 0.00 | 0.00 | 76 | 1007.2 |
| 20260506144832 | 67 | 115 | 7.0 | 8.0 | 0.00 | 0.00 | 0.00 | 76 | 1007.5 |
| 20260506144328 | 67 | 125 | 2.0 | 5.0 | 0.00 | 0.00 | 0.00 | 76 | 1007.5 |
| 20260506143827 | 66 | 222 | 6.0 | 10.0 | 0.00 | 0.00 | 0.00 | 77 | 1007.6 |
| 20260506143323 | 66 | 342 | 1.0 | 12.0 | 0.00 | 0.00 | 0.00 | 77 | 1007.8 |
| 20260506142821 | 66 | 94 | 3.0 | 3.0 | 0.00 | 0.00 | 0.00 | 77 | 1007.6 |
| 20260506142319 | 66 | 334 | 4.0 | 4.0 | 0.00 | 0.00 | 0.00 | 77 | 1007.6 |
| 20260506141817 | 66 | 214 | 4.0 | 12.0 | 0.00 | 0.00 | 0.00 | 77 | 1007.8 |
| 20260506141315 | 66 | 157 | 3.0 | 7.0 | 0.00 | 0.00 | 0.00 | 77 | 1007.9 |
| 20260506140813 | 66 | 226 | 5.0 | 5.0 | 0.00 | 0.00 | 0.00 | 77 | 1007.7 |
| 20260506140309 | 66 | 205 | 0.0 | 4.0 | 0.00 | 0.00 | 0.00 | 79 | 1008.0 |
| 20260506135806 | 65 | 60 | 2.0 | 5.0 | 0.00 | 0.00 | 0.00 | 80 | 1007.9 |
| 20260506135305 | 64 | 344 | 2.0 | 8.0 | 0.00 | 0.00 | 0.00 | 80 | 1007.7 |
| 20260506134759 | 64 | 241 | 5.0 | 5.0 | 0.00 | 0.00 | 0.00 | 81 | 1007.8 |
| 20260506134256 | 64 | 261 | 0.0 | 5.0 | 0.00 | 0.00 | 0.00 | 81 | 1007.5 |
| 20260506133753 | 64 | 60 | 5.0 | 5.0 | 0.00 | 0.00 | 0.00 | 81 | 1007.5 |
| 20260506133250 | 64 | 147 | 2.0 | 3.0 | 0.00 | 0.00 | 0.00 | 82 | 1007.7 |
| 20260506132746 | 63 | 192 | 1.0 | 10.0 | 0.00 | 0.00 | 0.00 | 82 | 1007.5 |
| 20260506132244 | 63 | 354 | 1.0 | 12.0 | 0.00 | 0.00 | 0.00 | 83 | 1007.5 |
| 20260506131742 | 63 | 185 | 0.0 | 6.0 | 0.00 | 0.00 | 0.00 | 83 | 1007.6 |
| 20260506131237 | 62 | 117 | 9.0 | 9.0 | 0.00 | 0.00 | 0.00 | 83 | 1007.8 |
| 20260506130734 | 62 | 327 | 0.0 | 5.0 | 0.00 | 0.00 | 0.00 | 84 | 1008.1 |
| 20260506130231 | 61 | 265 | 2.0 | 6.0 | 0.00 | 0.00 | 0.00 | 85 | 1007.9 |
| 20260506125729 | 61 | 116 | 4.0 | 10.0 | 0.00 | 0.00 | 0.00 | 86 | 1008.0 |
| 20260506125227 | 61 | 34 | 0.0 | 5.0 | 0.00 | 0.00 | 0.00 | 86 | 1007.8 |
| 20260506124725 | 61 | 135 | 5.0 | 5.0 | 0.00 | 0.00 | 0.00 | 86 | 1007.8 |
| 20260506124223 | 61 | 111 | 5.0 | 9.0 | 0.00 | 0.00 | 0.00 | 86 | 1008.4 |
| 20260506123719 | 61 | 249 | 4.0 | 6.0 | 0.00 | 0.00 | 0.00 | 86 | 1008.3 |
| 20260506123218 | 61 | 61 | 7.0 | 7.0 | 0.00 | 0.00 | 0.00 | 86 | 1008.5 |
| 20260506122715 | 60 | 135 | 2.0 | 3.0 | 0.00 | 0.00 | 0.00 | 87 | 1008.2 |
| 20260506122212 | 60 | 225 | 3.0 | 6.0 | 0.00 | 0.00 | 0.00 | 86 | 1008.5 |
| 20260506121710 | 60 | 39 | 3.0 | 8.0 | 0.00 | 0.00 | 0.00 | 87 | 1008.3 |
| 20260506121206 | 60 | 40 | 0.0 | 5.0 | 0.00 | 0.00 | 0.00 | 87 | 1008.7 |
| 20260506120704 | 60 | 42 | 3.0 | 9.0 | 0.00 | 0.00 | 0.00 | 87 | 1008.3 |
| 20260506120201 | 60 | 180 | 2.0 | 6.0 | 0.00 | 0.00 | 0.00 | 88 | 1008.0 |
| 20260506115659 | 60 | 90 | 0.0 | 3.0 | 0.00 | 0.00 | 0.00 | 88 | 1008.3 |
| 20260506115157 | 59 | 147 | 2.0 | 12.0 | 0.00 | 0.00 | 0.00 | 87 | 1008.3 |
| 20260506114654 | 60 | 246 | 2.0 | 3.0 | 0.00 | 0.00 | 0.00 | 87 | 1008.3 |
| 20260506114152 | 59 | 348 | 3.0 | 8.0 | 0.00 | 0.00 | 0.00 | 88 | 1008.3 |
| 20260506113651 | 59 | 225 | 4.0 | 5.0 | 0.00 | 0.00 | 0.00 | 87 | 1008.2 |
| 20260506113147 | 59 | 261 | 0.0 | 8.0 | 0.00 | 0.00 | 0.00 | 88 | 1008.6 |
| 20260506112643 | 59 | 220 | 3.0 | 6.0 | 0.00 | 0.00 | 0.00 | 88 | 1008.5 |
| 20260506112141 | 59 | 199 | 3.0 | 4.0 | 0.00 | 0.00 | 0.00 | 88 | 1008.3 |
| 20260506111639 | 59 | 165 | 2.0 | 4.0 | 0.00 | 0.00 | 0.00 | 89 | 1008.1 |
| 20260506111136 | 59 | 241 | 2.0 | 5.0 | 0.00 | 0.00 | 0.00 | 89 | 1008.2 |
| 20260506110633 | 58 | 200 | 1.0 | 5.0 | 0.00 | 0.00 | 0.00 | 90 | 1008.3 |
| 20260506110131 | 58 | 54 | 3.0 | 3.0 | 0.00 | 0.00 | 0.00 | 90 | 1008.6 |
| 20260506105627 | 58 | 3 | 3.0 | 3.0 | 0.00 | 0.00 | 0.00 | 91 | 1008.6 |
| 20260506105124 | 57 | 160 | 3.0 | 7.0 | 0.00 | 0.00 | 0.00 | 91 | 1008.5 |
| 20260506104623 | 57 | 123 | 4.0 | 6.0 | 0.00 | 0.00 | 0.00 | 92 | 1008.5 |
| 20260506104120 | 57 | 113 | 3.0 | 3.0 | 0.00 | 0.00 | 0.00 | 92 | 1008.5 |
| 20260506103617 | 57 | 90 | 1.0 | 2.0 | 0.00 | 0.00 | 0.00 | 92 | 1008.5 |
| 20260506103114 | 57 | 172 | 0.0 | 2.0 | 0.00 | 0.00 | 0.00 | 92 | 1008.7 |
| 20260506102612 | 56 | 120 | 3.0 | 3.0 | 0.00 | 0.00 | 0.00 | 92 | 1008.5 |
| 20260506102109 | 56 | 109 | 0.0 | 2.0 | 0.00 | 0.00 | 0.00 | 92 | 1008.4 |
| 20260506101606 | 56 | 125 | 2.0 | 3.0 | 0.00 | 0.00 | 0.00 | 92 | 1008.2 |
| 20260506101102 | 56 | 90 | 2.0 | 2.0 | 0.00 | 0.00 | 0.00 | 92 | 1008.2 |
| 20260506100601 | 56 | 90 | 0.0 | 2.0 | 0.00 | 0.00 | 0.00 | 92 | 1008.3 |
| 20260506100058 | 56 | 151 | 0.0 | 3.0 | 0.00 | 0.00 | 0.00 | 92 | 1008.2 |
| 20260506095557 | 56 | 126 | 1.0 | 2.0 | 0.00 | 0.00 | 0.00 | 91 | 1008.1 |
| 20260506095053 | 57 | 180 | 1.0 | 2.0 | 0.00 | 0.00 | 0.00 | 90 | 1008.3 |
| 20260506094551 | 57 | 187 | 0.0 | 3.0 | 0.00 | 0.00 | 0.00 | 90 | 1008.4 |
| 20260506094049 | 57 | 103 | 0.0 | 5.0 | 0.00 | 0.00 | 0.00 | 90 | 1008.1 |
| 20260506093547 | 57 | 270 | 0.0 | 3.0 | 0.00 | 0.00 | 0.00 | 90 | 1008.1 |
| 20260506093044 | 57 | 227 | 3.0 | 3.0 | 0.00 | 0.00 | 0.00 | 89 | 1008.0 |
| 20260506092542 | 57 | 270 | 2.0 | 7.0 | 0.00 | 0.00 | 0.00 | 89 | 1008.3 |
| 20260506092038 | 57 | 12 | 0.0 | 3.0 | 0.00 | 0.00 | 0.00 | 89 | 1007.9 |
| 20260506091537 | 57 | 252 | 5.0 | 5.0 | 0.00 | 0.00 | 0.00 | 89 | 1008.4 |
| 20260506091033 | 57 | 180 | 2.0 | 4.0 | 0.00 | 0.00 | 0.00 | 89 | 1008.2 |
| 20260506090531 | 57 | 120 | 1.0 | 5.0 | 0.00 | 0.00 | 0.00 | 88 | 1008.2 |
| 20260506090027 | 58 | 251 | 1.0 | 6.0 | 0.00 | 0.00 | 0.00 | 88 | 1008.2 |
| 20260506085524 | 58 | 207 | 3.0 | 5.0 | 0.00 | 0.00 | 0.00 | 88 | 1008.4 |
| 20260506085021 | 58 | 84 | 2.0 | 9.0 | 0.00 | 0.00 | 0.00 | 88 | 1008.2 |
| 20260506084518 | 58 | 180 | 0.0 | 3.0 | 0.00 | 0.00 | 0.00 | 87 | 1008.2 |
| 20260506084014 | 58 | 60 | 0.0 | 3.0 | 0.00 | 0.00 | 0.00 | 87 | 1008.2 |
| 20260506083511 | 58 | 209 | 1.0 | 6.0 | 0.00 | 0.00 | 0.00 | 87 | 1008.2 |
| 20260506083009 | 58 | 282 | 0.0 | 6.0 | 0.00 | 0.00 | 0.00 | 86 | 1008.2 |
| 20260506082505 | 58 | 229 | 3.0 | 5.0 | 0.00 | 0.00 | 0.00 | 86 | 1008.2 |
| 20260506082001 | 58 | 188 | 0.0 | 6.0 | 0.00 | 0.00 | 0.00 | 86 | 1008.1 |
| 20260506081459 | 59 | 354 | 0.0 | 7.0 | 0.00 | 0.00 | 0.00 | 86 | 1008.3 |
| 20260506080956 | 59 | 231 | 4.0 | 7.0 | 0.00 | 0.00 | 0.00 | 85 | 1008.3 |
| 20260506080453 | 59 | 332 | 2.0 | 5.0 | 0.00 | 0.00 | 0.00 | 85 | 1008.2 |
| 20260506073437 | 59 | 23 | 1.0 | 5.0 | 0.00 | 0.00 | 0.00 | 85 | 1008.1 |
| 20260506072935 | 59 | 346 | 0.0 | 4.0 | 0.00 | 0.00 | 0.00 | 84 | 1008.1 |
| 20260506072431 | 59 | 207 | 3.0 | 6.0 | 0.00 | 0.00 | 0.00 | 84 | 1008.3 |
| 20260506071929 | 60 | 156 | 2.0 | 3.0 | 0.00 | 0.00 | 0.00 | 83 | 1008.2 |
| 20260506071427 | 60 | 37 | 4.0 | 4.0 | 0.00 | 0.00 | 0.00 | 83 | 1008.1 |
| 20260506070924 | 60 | 117 | 2.0 | 5.0 | 0.00 | 0.00 | 0.00 | 83 | 1008.1 |
| 20260506070421 | 60 | 215 | 3.0 | 4.0 | 0.00 | 0.00 | 0.00 | 82 | 1008.4 |
| 20260506062358 | 61 | 114 | 1.0 | 3.0 | 0.00 | 0.00 | 0.00 | 80 | 1008.1 |
| 20260506061854 | 61 | 156 | 3.0 | 5.0 | 0.00 | 0.00 | 0.00 | 80 | 1008.3 |
| 20260506061351 | 61 | 206 | 3.0 | 6.0 | 0.00 | 0.00 | 0.00 | 80 | 1008.1 |
| 20260506060849 | 61 | 54 | 4.0 | 4.0 | 0.00 | 0.00 | 0.00 | 79 | 1007.9 |
| 20260506060346 | 61 | 140 | 0.0 | 4.0 | 0.00 | 0.00 | 0.00 | 79 | 1008.1 |
| 20260506051318 | 62 | 110 | 2.0 | 3.0 | 0.00 | 0.00 | 0.00 | 75 | 1008.1 |
| 20260506050816 | 62 | 14 | 2.0 | 4.0 | 0.00 | 0.00 | 0.00 | 74 | 1008.3 |
| 20260506050313 | 62 | 36 | 0.0 | 2.0 | 0.00 | 0.00 | 0.00 | 74 | 1008.1 |
| 20260506044804 | 62 | 0 | 5.0 | 7.0 | 0.00 | 0.00 | 0.00 | 73 | 1008.2 |
| 20260506044301 | 62 | 83 | 1.0 | 6.0 | 0.00 | 0.00 | 0.00 | 73 | 1008.3 |
| 20260506043758 | 63 | 198 | 3.0 | 5.0 | 0.00 | 0.00 | 0.00 | 73 | 1008.4 |
| 20260506043255 | 63 | 176 | 2.0 | 4.0 | 0.00 | 0.00 | 0.00 | 73 | 1008.2 |
| 20260506042754 | 63 | 14 | 2.0 | 3.0 | 0.00 | 0.00 | 0.00 | 73 | 1008.0 |
| 20260506042253 | 63 | 231 | 0.0 | 5.0 | 0.00 | 0.00 | 0.00 | 72 | 1008.2 |
| 20260506041751 | 63 | 66 | 1.0 | 4.0 | 0.00 | 0.00 | 0.00 | 72 | 1008.3 |
| 20260506041247 | 63 | 160 | 5.0 | 7.0 | 0.00 | 0.00 | 0.00 | 72 | 1008.3 |
| 20260506040745 | 63 | 196 | 3.0 | 5.0 | 0.00 | 0.00 | 0.00 | 72 | 1008.4 |
| 20260506040242 | 63 | 131 | 0.0 | 3.0 | 0.00 | 0.00 | 0.00 | 72 | 1008.4 |
| 20260506035738 | 63 | 330 | 3.0 | 3.0 | 0.00 | 0.00 | 0.00 | 72 | 1008.4 |
| 20260506035236 | 63 | 127 | 2.0 | 4.0 | 0.00 | 0.00 | 0.00 | 72 | 1008.5 |
| 20260506034732 | 63 | 191 | 2.0 | 5.0 | 0.00 | 0.00 | 0.00 | 71 | 1008.2 |
| 20260506034230 | 63 | 90 | 0.0 | 2.0 | 0.00 | 0.00 | 0.00 | 71 | 1008.3 |
| 20260506033727 | 63 | 175 | 3.0 | 6.0 | 0.00 | 0.00 | 0.00 | 71 | 1008.4 |
| 20260506033224 | 63 | 192 | 0.0 | 4.0 | 0.00 | 0.00 | 0.00 | 71 | 1008.5 |
| 20260506032721 | 63 | 95 | 2.0 | 3.0 | 0.00 | 0.00 | 0.00 | 71 | 1008.4 |
| 20260506032217 | 63 | 210 | 2.0 | 4.0 | 0.00 | 0.00 | 0.00 | 71 | 1008.5 |
| 20260506031714 | 63 | 171 | 5.0 | 5.0 | 0.00 | 0.00 | 0.00 | 70 | 1008.5 |
| 20260506031212 | 63 | 180 | 1.0 | 5.0 | 0.00 | 0.00 | 0.00 | 70 | 1008.4 |
| 20260506030710 | 63 | 120 | 5.0 | 5.0 | 0.00 | 0.00 | 0.00 | 69 | 1008.4 |
| 20260506030207 | 64 | 231 | 3.0 | 8.0 | 0.00 | 0.00 | 0.00 | 69 | 1008.5 |
| 20260506025703 | 64 | 132 | 2.0 | 7.0 | 0.00 | 0.00 | 0.00 | 69 | 1008.3 |
| 20260506025200 | 64 | 119 | 4.0 | 7.0 | 0.00 | 0.00 | 0.00 | 68 | 1008.2 |
| 20260506024657 | 64 | 195 | 0.0 | 9.0 | 0.00 | 0.00 | 0.00 | 68 | 1008.5 |
| 20260506024153 | 64 | 244 | 4.0 | 4.0 | 0.00 | 0.00 | 0.00 | 68 | 1008.2 |
| 20260506023650 | 64 | 15 | 1.0 | 6.0 | 0.00 | 0.00 | 0.00 | 67 | 1008.4 |
| 20260506023147 | 65 | 90 | 1.0 | 7.0 | 0.00 | 0.00 | 0.00 | 66 | 1008.1 |
| 20260506022644 | 65 | 146 | 2.0 | 5.0 | 0.00 | 0.00 | 0.00 | 66 | 1008.1 |
| 20260506022141 | 64 | 356 | 2.0 | 6.0 | 0.00 | 0.00 | 0.00 | 66 | 1008.1 |
| 20260506021639 | 64 | 62 | 4.0 | 5.0 | 0.00 | 0.00 | 0.00 | 66 | 1008.1 |
| 20260506021136 | 65 | 270 | 1.0 | 9.0 | 0.00 | 0.00 | 0.00 | 66 | 1008.0 |
| 20260506020633 | 64 | 217 | 2.0 | 3.0 | 0.00 | 0.00 | 0.00 | 66 | 1008.2 |
| 20260506020131 | 64 | 203 | 11.0 | 11.0 | 0.00 | 0.00 | 0.00 | 66 | 1008.2 |
| 20260506015628 | 65 | 216 | 3.0 | 6.0 | 0.00 | 0.00 | 0.00 | 65 | 1008.3 |
| 20260506015125 | 64 | 129 | 2.0 | 4.0 | 0.00 | 0.00 | 0.00 | 66 | 1008.1 |
| 20260506014623 | 65 | 55 | 3.0 | 5.0 | 0.00 | 0.00 | 0.00 | 65 | 1007.9 |
| 20260506014118 | 65 | 74 | 2.0 | 3.0 | 0.00 | 0.00 | 0.00 | 65 | 1008.1 |
| 20260506013617 | 65 | 189 | 2.0 | 4.0 | 0.00 | 0.00 | 0.00 | 65 | 1008.0 |
| 20260506013113 | 65 | 112 | 2.0 | 3.0 | 0.00 | 0.00 | 0.00 | 65 | 1007.7 |
| 20260506012609 | 65 | 36 | 3.0 | 3.0 | 0.00 | 0.00 | 0.00 | 65 | 1008.0 |
| 20260506012106 | 65 | 85 | 0.0 | 5.0 | 0.00 | 0.00 | 0.00 | 64 | 1007.7 |
| 20260506011604 | 65 | 208 | 3.0 | 3.0 | 0.00 | 0.00 | 0.00 | 65 | 1007.7 |
| 20260506011100 | 66 | 153 | 0.0 | 4.0 | 0.00 | 0.00 | 0.00 | 65 | 1007.5 |
| 20260506010559 | 66 | 232 | 0.0 | 3.0 | 0.00 | 0.00 | 0.00 | 64 | 1007.7 |
| 20260506010056 | 66 | 263 | 6.0 | 8.0 | 0.00 | 0.00 | 0.00 | 64 | 1007.6 |
| 20260506005553 | 66 | 163 | 4.0 | 8.0 | 0.00 | 0.00 | 0.00 | 64 | 1007.6 |
| 20260506005048 | 66 | 115 | 4.0 | 4.0 | 0.00 | 0.00 | 0.00 | 64 | 1007.4 |
| 20260506004546 | 66 | 188 | 0.0 | 6.0 | 0.00 | 0.00 | 0.00 | 63 | 1007.5 |
| 20260506004043 | 67 | 166 | 2.0 | 7.0 | 0.00 | 0.00 | 0.00 | 63 | 1007.2 |
| 20260506003539 | 67 | 246 | 0.0 | 6.0 | 0.00 | 0.00 | 0.00 | 63 | 1007.2 |
| 20260506003035 | 67 | 99 | 0.0 | 6.0 | 0.00 | 0.00 | 0.00 | 63 | 1007.1 |
| 20260506002531 | 67 | 94 | 2.0 | 6.0 | 0.00 | 0.00 | 0.00 | 63 | 1007.1 |
| 20260506002027 | 67 | 84 | 0.0 | 6.0 | 0.00 | 0.00 | 0.00 | 63 | 1006.9 |
| 20260506001524 | 68 | 186 | 0.0 | 7.0 | 0.00 | 0.00 | 0.00 | 62 | 1006.9 |
| 20260506001021 | 68 | 71 | 2.0 | 6.0 | 0.00 | 0.00 | 0.00 | 62 | 1006.8 |
| 20260506000519 | 68 | 8 | 0.0 | 10.0 | 0.00 | 0.00 | 0.00 | 62 | 1006.7 |
| 20260506000016 | 68 | 148 | 0.0 | 5.0 | 0.00 | 0.00 | 0.00 | 62 | 1006.6 |
| 20260505235514 | 68 | 223 | 5.0 | 15.0 | 0.00 | 0.00 | 0.00 | 61 | 1006.6 |
| 20260505235010 | 68 | 323 | 3.0 | 8.0 | 0.00 | 0.00 | 0.00 | 61 | 1006.4 |
| 20260505234508 | 69 | 208 | 3.0 | 9.0 | 0.00 | 0.00 | 0.00 | 61 | 1006.3 |
| 20260505234004 | 69 | 350 | 0.0 | 11.0 | 0.00 | 0.00 | 0.00 | 60 | 1006.3 |
| 20260505233502 | 69 | 347 | 3.0 | 8.0 | 0.00 | 0.00 | 0.00 | 60 | 1006.4 |
| 20260505232959 | 69 | 222 | 3.0 | 9.0 | 0.00 | 0.00 | 0.00 | 60 | 1006.3 |
| 20260505232457 | 69 | 172 | 6.0 | 9.0 | 0.00 | 0.00 | 0.00 | 60 | 1006.0 |
| 20260505231954 | 69 | 127 | 2.0 | 9.0 | 0.00 | 0.00 | 0.00 | 59 | 1006.0 |
| 20260505231451 | 70 | 39 | 5.0 | 11.0 | 0.00 | 0.00 | 0.00 | 59 | 1006.1 |
| 20260505230949 | 70 | 97 | 5.0 | 11.0 | 0.00 | 0.00 | 0.00 | 58 | 1006.1 |
| 20260505230447 | 70 | 59 | 4.0 | 9.0 | 0.00 | 0.00 | 0.00 | 58 | 1006.0 |
| 20260505225943 | 71 | 85 | 2.0 | 10.0 | 0.00 | 0.00 | 0.00 | 58 | 1005.7 |
| 20260505225440 | 71 | 199 | 2.0 | 6.0 | 0.00 | 0.00 | 0.00 | 58 | 1005.9 |
| 20260505224936 | 71 | 77 | 5.0 | 15.0 | 0.00 | 0.00 | 0.00 | 57 | 1005.7 |
| 20260505224433 | 72 | 96 | 2.0 | 7.0 | 0.00 | 0.00 | 0.00 | 57 | 1005.8 |
| 20260505223930 | 72 | 94 | 5.0 | 10.0 | 0.00 | 0.00 | 0.00 | 56 | 1005.9 |
| 20260505223427 | 72 | 261 | 0.0 | 11.0 | 0.00 | 0.00 | 0.00 | 56 | 1005.6 |
| 20260505222923 | 72 | 242 | 5.0 | 8.0 | 0.00 | 0.00 | 0.00 | 56 | 1005.7 |
| 20260505222420 | 72 | 209 | 3.0 | 10.0 | 0.00 | 0.00 | 0.00 | 55 | 1005.6 |
| 20260505221916 | 72 | 244 | 0.0 | 19.0 | 0.00 | 0.00 | 0.00 | 55 | 1005.7 |
| 20260505221413 | 72 | 213 | 4.0 | 18.0 | 0.00 | 0.00 | 0.00 | 55 | 1005.6 |
| 20260505220910 | 73 | 135 | 5.0 | 9.0 | 0.00 | 0.00 | 0.00 | 54 | 1005.6 |
| 20260505220407 | 73 | 152 | 7.0 | 11.0 | 0.00 | 0.00 | 0.00 | 54 | 1005.4 |
| 20260505215905 | 74 | 127 | 2.0 | 11.0 | 0.00 | 0.00 | 0.00 | 53 | 1005.2 |
| 20260505215403 | 74 | 235 | 2.0 | 7.0 | 0.00 | 0.00 | 0.00 | 52 | 1005.5 |
| 20260505214900 | 74 | 203 | 10.0 | 15.0 | 0.00 | 0.00 | 0.00 | 52 | 1005.4 |
| 20260505214358 | 75 | 90 | 2.0 | 7.0 | 0.00 | 0.00 | 0.00 | 52 | 1005.6 |
| 20260505213855 | 75 | 253 | 0.0 | 11.0 | 0.00 | 0.00 | 0.00 | 51 | 1005.5 |
| 20260505213352 | 76 | 85 | 2.0 | 12.0 | 0.00 | 0.00 | 0.00 | 50 | 1005.5 |
| 20260505212848 | 77 | 186 | 1.0 | 7.0 | 0.00 | 0.00 | 0.00 | 49 | 1005.4 |
| 20260505212345 | 77 | 245 | 5.0 | 10.0 | 0.00 | 0.00 | 0.00 | 49 | 1005.5 |
| 20260505211841 | 76 | 200 | 4.0 | 13.0 | 0.00 | 0.00 | 0.00 | 49 | 1005.4 |
| 20260505211339 | 76 | 217 | 2.0 | 12.0 | 0.00 | 0.00 | 0.00 | 50 | 1005.3 |
| 20260505210836 | 76 | 74 | 5.0 | 11.0 | 0.00 | 0.00 | 0.00 | 50 | 1005.3 |
| 20260505210333 | 76 | 133 | 7.0 | 10.0 | 0.00 | 0.00 | 0.00 | 50 | 1005.5 |
| 20260505205829 | 77 | 270 | 2.0 | 12.0 | 0.00 | 0.00 | 0.00 | 49 | 1005.3 |
| 20260505205328 | 77 | 331 | 5.0 | 9.0 | 0.00 | 0.00 | 0.00 | 49 | 1005.2 |
| 20260505204824 | 77 | 218 | 6.0 | 8.0 | 0.00 | 0.00 | 0.00 | 49 | 1005.5 |
| 20260505204322 | 77 | 94 | 7.0 | 18.0 | 0.00 | 0.00 | 0.00 | 49 | 1005.4 |
| 20260505203819 | 78 | 220 | 5.0 | 10.0 | 0.00 | 0.00 | 0.00 | 48 | 1005.2 |
| 20260505203316 | 78 | 294 | 6.0 | 11.0 | 0.00 | 0.00 | 0.00 | 47 | 1005.2 |
| 20260505202812 | 78 | 36 | 2.0 | 14.0 | 0.00 | 0.00 | 0.00 | 47 | 1005.3 |
| 20260505202308 | 79 | 235 | 8.0 | 15.0 | 0.00 | 0.00 | 0.00 | 47 | 1005.0 |
| 20260505201805 | 80 | 127 | 13.0 | 13.0 | 0.00 | 0.00 | 0.00 | 46 | 1005.1 |
| 20260505201302 | 79 | 194 | 3.0 | 12.0 | 0.00 | 0.00 | 0.00 | 48 | 1005.0 |
| 20260505200801 | 79 | 193 | 3.0 | 14.0 | 0.00 | 0.00 | 0.00 | 47 | 1005.5 |
| 20260505200257 | 79 | 117 | 4.0 | 13.0 | 0.00 | 0.00 | 0.00 | 47 | 1005.2 |
| 20260505195752 | 80 | 234 | 4.0 | 13.0 | 0.00 | 0.00 | 0.00 | 46 | 1004.9 |
| 20260505195250 | 81 | 219 | 8.0 | 13.0 | 0.00 | 0.00 | 0.00 | 44 | 1005.3 |
| 20260505194747 | 80 | 75 | 3.0 | 14.0 | 0.00 | 0.00 | 0.00 | 45 | 1005.1 |